Location: ???????
(55.7027°N, 37.3832°E)
Time: 07:52:13
(UTC+00:00)

SJ 16-02 - Pass Details

Date: 14 April 2026
Orbit: 582 x 592 km, 75.0° (Epoch: 12 May)

Event Time Altitude Azimuth Distance (km) Brightness Sun altitude
Rises 20:36:42 0° 334° (NNW) 2,834 6.1 -23.7°
Reaches altitude 10° 20:38:57 10° 338° (NNW) 1,927 5.0 -23.8°
Maximum altitude 20:43:13 65° 61° (ENE) 651 1.4 -23.9°
Enters shadow 20:43:16 65° 65° (ENE) 651 1.4 -23.9°
